Вернуться в каталог

STARLINK-38124

АктивенСвязьVLEO
NORAD 100008·PAYLOAD·🇺🇸 United States

Запущен Jul 14, 2026 с Vandenberg Space Force Base

Loading…

Ближайшие Пролёты (ближайшие 24 часа)

TLE

СвежийSource: Space-Track

Эпоха: Sep 14, 2026, 22:55 UTC

1 A0008U 26160H   26257.95524522 -.00882416  00000-0 -77147-2 0  9998
2 A0008  70.0007 210.8272 0004346 261.2990  98.7714 15.71204858 11113

Отслеживайте STARLINK-38124 в реальном времени с AllMySat

Download on the App Store